Weather History for KTDF - March, 2015

Change the Weather History Date:

Thursday, March 12, 2015

  Actual Average Record
Temperature  
Mean Temperature 52 °F -  
Max Temperature 62 °F 60 °F 84 °F (2006)
Min Temperature 41 °F 35 °F 17 °F (1991)
Degree Days  
Heating Degree Days 14    
Growing Degree Days 2 (Base 50)    
Moisture  
Dew Point 37 °F    
Average Humidity 61    
Maximum Humidity 100    
Minimum Humidity 26    
Precipitation  
Precipitation 0.00 in - - ()
Sea Level Pressure  
Sea Level Pressure 30.44 in    
Wind  
Wind Speed 5 mph (NE)    
Max Wind Speed 17 mph    
Max Gust Speed 21 mph    
Visibility 10 miles    
Events      
Averages and records for this station are not official NWS values.
T = Trace of Precipitation, MM = Missing Value Source: NWS Daily Summary

Daily Weather History Graph

Daily Weather History Graph

Search for Another Location

Airport or City:

Trip Planner

Search our weather history database for the weather conditions in past years. The results will help you decide how hot, cold, wet, or windy it might be!

Date:

Astronomy

Mar. 12, 2015 Rise Set
Actual Time 7:31 AM EDT 7:20 PM EDT
Civil Twilight 7:05 AM EDT 7:46 PM EDT
Nautical Twilight 6:36 AM EDT 8:16 PM EDT
Astronomical Twilight 6:06 AM EDT 8:46 PM EDT
Moon 12:55 AM EDT (3/12) 11:32 AM EDT (3/12)
Length of Visible Light 12h 40m
Length of Day
11h 49m
Waning Gibbous, 61% of the Moon is Illuminated
Mar 12
Waning Gibbous
Mar 13
Last Quarter
Mar 20
New
Mar 27
First Quarter
Apr 4
Full

Hourly Weather History & Observations

Time (EDT) Temp. Windchill Dew Point Humidity Pressure Visibility Wind Dir Wind Speed Gust Speed Precip Events Conditions
12:15 AM 59.0 °F - 57.2 °F 94% 30.25 in 10.0 mi NNW 4.6 mph - N/A   Overcast
12:35 AM 57.2 °F - 55.4 °F 94% 30.26 in 10.0 mi NNW 5.8 mph - N/A   Mostly Cloudy
12:55 AM 57.2 °F - 53.6 °F 88% 30.26 in 10.0 mi Calm Calm - N/A   Scattered Clouds
1:15 AM 55.4 °F - 53.6 °F 94% 30.27 in 10.0 mi NNW 3.5 mph - N/A   Clear
1:35 AM 55.4 °F - 51.8 °F 88% 30.27 in 10.0 mi North 4.6 mph - N/A   Clear
1:55 AM 53.6 °F - 51.8 °F 94% 30.28 in 10.0 mi NNW 3.5 mph - N/A   Clear
2:15 AM 53.6 °F - 51.8 °F 94% 30.28 in 10.0 mi NNW 4.6 mph - N/A   Clear
2:35 AM 53.6 °F - 51.8 °F 94% 30.29 in 10.0 mi NNW 3.5 mph - N/A   Clear
2:55 AM 53.6 °F - 50.0 °F 88% 30.30 in 10.0 mi NNW 3.5 mph - N/A   Clear
3:15 AM 51.8 °F - 50.0 °F 94% 30.31 in 10.0 mi Calm Calm - N/A   Clear
3:35 AM 50.0 °F - 48.2 °F 94% 30.31 in 10.0 mi North 3.5 mph - N/A   Clear
3:55 AM 50.0 °F - 46.4 °F 87% 30.31 in 10.0 mi NNW 3.5 mph - N/A   Clear
4:15 AM 50.0 °F - 46.4 °F 87% 30.31 in 10.0 mi Calm Calm - N/A   Clear
4:35 AM 48.2 °F - 46.4 °F 93% 30.31 in 10.0 mi Calm Calm - N/A   Clear
4:55 AM 48.2 °F - 44.6 °F 87% 30.31 in 10.0 mi Calm Calm - N/A   Clear
5:15 AM 46.4 °F 45.2 °F 44.6 °F 93% 30.32 in 10.0 mi North 3.5 mph - N/A   Clear
5:35 AM 46.4 °F 45.2 °F 44.6 °F 93% 30.33 in 10.0 mi North 3.5 mph - N/A   Clear
5:55 AM 46.4 °F - 44.6 °F 93% 30.35 in 10.0 mi Calm Calm - N/A   Clear
6:15 AM 44.6 °F 42.2 °F 44.6 °F 100% 30.36 in 10.0 mi NNE 4.6 mph - N/A   Clear
6:35 AM 46.4 °F 44.3 °F 42.8 °F 87% 30.37 in 10.0 mi NNE 4.6 mph - N/A   Clear
6:55 AM 46.4 °F 43.5 °F 42.8 °F 87% 30.37 in 10.0 mi North 5.8 mph - N/A   Clear
7:15 AM 46.4 °F 44.3 °F 42.8 °F 87% 30.38 in 10.0 mi NNE 4.6 mph - N/A   Clear
7:35 AM 41.0 °F - 41.0 °F 100% 30.39 in 10.0 mi Calm Calm - N/A   Clear
7:55 AM 41.0 °F 39.0 °F 41.0 °F 100% 30.41 in 10.0 mi NNE 3.5 mph - N/A   Clear
8:15 AM 42.8 °F 41.1 °F 42.8 °F 100% 30.42 in 10.0 mi NE 3.5 mph - N/A   Clear
8:35 AM 46.4 °F 42.4 °F 46.4 °F 100% 30.43 in 10.0 mi NE 8.1 mph - N/A   Clear
8:55 AM 50.0 °F - 46.4 °F 87% 30.44 in 10.0 mi NE 8.1 mph - N/A   Clear
9:15 AM 50.0 °F - 44.6 °F 82% 30.45 in 10.0 mi ENE 13.8 mph 17.3 mph N/A   Clear
9:35 AM 51.8 °F - 39.2 °F 62% 30.46 in 10.0 mi NE 11.5 mph - N/A   Clear
9:55 AM 51.8 °F - 37.4 °F 58% 30.47 in 10.0 mi ENE 13.8 mph 17.3 mph N/A   Clear
10:15 AM 53.6 °F - 37.4 °F 54% 30.47 in 10.0 mi NE 10.4 mph - N/A   Clear
10:35 AM 53.6 °F - 37.4 °F 54% 30.48 in 10.0 mi ENE 10.4 mph - N/A   Clear
10:55 AM 53.6 °F - 35.6 °F 51% 30.49 in 10.0 mi East 9.2 mph - N/A   Clear
11:15 AM 55.4 °F - 33.8 °F 44% 30.50 in 10.0 mi ENE 9.2 mph - N/A   Clear
11:35 AM 55.4 °F - 33.8 °F 44% 30.50 in 10.0 mi NE 8.1 mph - N/A   Clear
11:55 AM 57.2 °F - 33.8 °F 41% 30.51 in 10.0 mi East 10.4 mph - N/A   Clear
12:15 PM 59.0 °F - 33.8 °F 39% 30.52 in 10.0 mi East 6.9 mph - N/A   Clear
12:35 PM 59.0 °F - 30.2 °F 34% 30.52 in 10.0 mi NNE 9.2 mph - N/A   Clear
12:55 PM 59.0 °F - 28.4 °F 31% 30.52 in 10.0 mi NE 11.5 mph - N/A   Clear
1:15 PM 60.8 °F - 26.6 °F 27% 30.52 in 10.0 mi ENE 13.8 mph 18.4 mph N/A   Clear
1:35 PM 60.8 °F - 28.4 °F 29% 30.50 in 10.0 mi East 15.0 mph 19.6 mph N/A   Clear
1:55 PM 60.8 °F - 26.6 °F 27% 30.50 in 10.0 mi NE 10.4 mph 17.3 mph N/A   Clear
2:15 PM 60.8 °F - 26.6 °F 27% 30.48 in 10.0 mi NE 17.3 mph 20.7 mph N/A   Clear
2:35 PM 62.6 °F - 26.6 °F 26% 30.48 in 10.0 mi ENE 16.1 mph 20.7 mph N/A   Clear
2:55 PM 62.6 °F - 28.4 °F 27% 30.47 in 10.0 mi East 13.8 mph 17.3 mph N/A   Clear
3:15 PM 62.6 °F - 28.4 °F 27% 30.47 in 10.0 mi ENE 12.7 mph 20.7 mph N/A   Clear
3:35 PM 62.6 °F - 28.4 °F 27% 30.47 in 10.0 mi ENE 13.8 mph 18.4 mph N/A   Clear
3:55 PM 62.6 °F - 26.6 °F 26% 30.47 in 10.0 mi NE 8.1 mph 16.1 mph N/A   Clear
4:15 PM 62.6 °F - 28.4 °F 27% 30.47 in 10.0 mi NE 9.2 mph 16.1 mph N/A   Clear
4:35 PM 62.6 °F - 26.6 °F 26% 30.47 in 10.0 mi ENE 5.8 mph - N/A   Clear
4:55 PM 62.6 °F - 26.6 °F 26% 30.48 in 10.0 mi East 8.1 mph - N/A   Clear
5:35 PM 60.8 °F - 26.6 °F 27% 30.48 in 10.0 mi East 8.1 mph - N/A   Clear
5:55 PM 60.8 °F - 26.6 °F 27% 30.48 in 10.0 mi East 6.9 mph - N/A   Clear
6:15 PM 60.8 °F - 26.6 °F 27% 30.48 in 10.0 mi ENE 6.9 mph - N/A   Clear
6:35 PM 59.0 °F - 28.4 °F 31% 30.49 in 10.0 mi East 4.6 mph - N/A   Clear
6:55 PM 59.0 °F - 28.4 °F 31% 30.49 in 10.0 mi East 4.6 mph - N/A   Clear
7:15 PM 55.4 °F - 30.2 °F 38% 30.50 in 10.0 mi East 3.5 mph - N/A   Clear
7:35 PM 53.6 °F - 28.4 °F 38% 30.51 in 10.0 mi ENE 3.5 mph - N/A   Clear
7:55 PM 51.8 °F - 30.2 °F 44% 30.52 in 10.0 mi Calm Calm - N/A   Clear
8:15 PM 50.0 °F - 32.0 °F 50% 30.52 in 10.0 mi Calm Calm - N/A   Clear
8:35 PM 50.0 °F - 30.2 °F 47% 30.53 in 10.0 mi East 4.6 mph - N/A   Clear
8:55 PM 50.0 °F - 30.2 °F 47% 30.53 in 10.0 mi East 4.6 mph - N/A   Clear
9:15 PM 50.0 °F - 30.2 °F 47% 30.53 in 10.0 mi East 4.6 mph - N/A   Clear
9:35 PM 50.0 °F - 30.2 °F 47% 30.53 in 10.0 mi East 4.6 mph - N/A   Clear
9:55 PM 50.0 °F - 30.2 °F 47% 30.54 in 10.0 mi East 4.6 mph - N/A   Clear
10:15 PM 48.2 °F - 30.2 °F 50% 30.54 in 10.0 mi East 3.5 mph - N/A   Clear
10:35 PM 50.0 °F - 30.2 °F 47% 30.55 in 10.0 mi ENE 3.5 mph - N/A   Clear
10:55 PM 44.6 °F - 32.0 °F 61% 30.55 in 10.0 mi Calm Calm - N/A   Clear
11:15 PM 42.8 °F - 32.0 °F 66% 30.55 in 10.0 mi Calm Calm - N/A   Clear
11:35 PM 42.8 °F - 32.0 °F 66% 30.55 in 10.0 mi Calm Calm - N/A   Clear
11:55 PM 41.0 °F 39.0 °F 32.0 °F 70% 30.55 in 10.0 mi East 3.5 mph - N/A   Clear